User: anonymous   Login
Location: Alsip
(41.6689°N, 87.7387°W)
Time: 07:58:37
(UTC+00:00)
Language:

Abrixas rocket - Orbit

View from above orbital plane
View from above orbital plane
View from above satellite
View from above satellite

Ground track
Ground track

The orbit data is extracted from the following two-line orbital elements,

1 25723U 99022C   20271.73642027 +.00032838 +00000-0 +19372-3 0  9993
2 25723 048.4108 160.9833 0004796 144.0927 216.0350 15.77733579193799
Epoch (UTC): 27 September 2020 17:40:26
Eccentricity: 0.0004796
inclination: 48.4108°
perigee height: 333 km
apogee height: 340 km
right ascension of ascending node: 160.9833°
argument of perigee: 144.0927°
revolutions per day: 15.77733579
mean anomaly at epoch: 216.0350°
orbit number at epoch: 19379

The dashed part of the orbit path shows where the satellite is in the earth's shadow,  

DLR